Location: Drummondville
(45.8830°N, 72.4830°W)
Time: 21:00:49
(UTC-05:00)

N. Korean satellite - Pass Details

Date: 13 November 2017
Orbit: 460 x 514 km, 97.2° (Epoch: 24 November)

Event Time Altitude Azimuth Distance (km) Brightness Sun altitude
Rises 05:25:34 0° 35° (NE) 2,591 10.6 -14.3°
Reaches altitude 10° 05:29:18 10° 75° (ENE) 1,714 10.4 -13.7°
Maximum altitude 05:30:12 11° 89° (E) 1,672 10.6 -13.6°
Drops below altitude 10° 05:31:05 10° 103° (ESE) 1,717 10.8 -13.4°
Sets 05:34:49 0° 143° (SE) 2,605 11.1 -12.8°
